Time,TemperatureF,DewpointF,PressureIn,WindDirection,WindDirectionDegrees,WindSpeedMPH,WindSpeedGustMPH,Humidity,HourlyPrecipIn,Conditions,Clouds,dailyrainin,SoftwareType,DateUTC
2013-06-30 00:02:00,75.7,65.6,29.72,South,182,1.0,1.0,71,0.00,,,0.00,Wunderground v.1.15,2013-06-30 07:02:00,
2013-06-30 00:07:00,75.5,65.4,29.72,South,182,1.0,2.0,71,0.00,,,0.00,Wunderground v.1.15,2013-06-30 07:07:00,
2013-06-30 00:17:00,75.0,65.4,29.72,South,182,2.0,3.0,72,0.00,,,0.00,Wunderground v.1.15,2013-06-30 07:17:00,
2013-06-30 00:22:00,74.8,65.6,29.72,South,182,2.0,2.0,73,0.00,,,0.00,Wunderground v.1.15,2013-06-30 07:22:00,
2013-06-30 00:32:00,74.2,65.4,29.72,South,176,2.0,2.0,74,0.00,,,0.00,Wunderground v.1.15,2013-06-30 07:32:00,
2013-06-30 00:42:00,73.7,65.7,29.72,South,176,1.0,2.0,76,0.00,,,0.00,Wunderground v.1.15,2013-06-30 07:42:00,
2013-06-30 00:52:00,73.3,65.7,29.72,South,176,2.0,2.0,77,0.00,,,0.00,Wunderground v.1.15,2013-06-30 07:52:00,
2013-06-30 00:57:00,73.0,65.7,29.72,South,176,2.0,3.0,78,0.00,,,0.00,Wunderground v.1.15,2013-06-30 07:57:00,
2013-06-30 01:02:00,72.7,65.4,29.71,South,176,2.0,2.0,78,0.00,,,0.00,Wunderground v.1.15,2013-06-30 08:02:00,
2013-06-30 01:12:00,72.3,65.4,29.71,South,176,1.0,1.0,79,0.00,,,0.00,Wunderground v.1.15,2013-06-30 08:12:00,
2013-06-30 01:22:00,71.9,65.4,29.71,South,176,1.0,3.0,80,0.00,,,0.00,Wunderground v.1.15,2013-06-30 08:22:00,
2013-06-30 01:27:00,71.8,65.7,29.71,South,176,1.0,3.0,81,0.00,,,0.00,Wunderground v.1.15,2013-06-30 08:27:00,
2013-06-30 01:37:00,71.6,65.5,29.70,South,176,0.0,1.0,81,0.00,,,0.00,Wunderground v.1.15,2013-06-30 08:37:00,
2013-06-30 01:42:00,71.5,65.7,29.70,South,176,0.0,0.0,82,0.00,,,0.00,Wunderground v.1.15,2013-06-30 08:42:00,
2013-06-30 01:52:00,71.3,65.5,29.70,South,176,0.0,1.0,82,0.00,,,0.00,Wunderground v.1.15,2013-06-30 08:52:00,
2013-06-30 02:02:00,71.2,65.4,29.70,South,176,1.0,1.0,82,0.00,,,0.00,Wunderground v.1.15,2013-06-30 09:02:00,
2013-06-30 02:07:00,71.0,65.2,29.69,South,176,1.0,1.0,82,0.00,,,0.00,Wunderground v.1.15,2013-06-30 09:07:00,
2013-06-30 02:12:00,70.9,65.1,29.69,South,176,1.0,1.0,82,0.00,,,0.00,Wunderground v.1.15,2013-06-30 09:12:00,
2013-06-30 02:22:00,70.8,65.0,29.69,South,176,0.0,0.0,82,0.00,,,0.00,Wunderground v.1.15,2013-06-30 09:22:00,
2013-06-30 02:27:00,70.6,65.2,29.69,South,176,0.0,0.0,83,0.00,,,0.00,Wunderground v.1.15,2013-06-30 09:27:00,
2013-06-30 02:37:00,70.4,65.0,29.68,South,176,0.0,0.0,83,0.00,,,0.00,Wunderground v.1.15,2013-06-30 09:37:00,
2013-06-30 02:47:00,70.2,64.8,29.68,South,176,0.0,0.0,83,0.00,,,0.00,Wunderground v.1.15,2013-06-30 09:47:00,
2013-06-30 02:52:00,70.2,64.8,29.68,South,176,0.0,0.0,83,0.00,,,0.00,Wunderground v.1.15,2013-06-30 09:52:00,
2013-06-30 03:02:00,70.0,64.9,29.68,South,176,0.0,0.0,84,0.00,,,0.00,Wunderground v.1.15,2013-06-30 10:02:00,
2013-06-30 03:07:00,70.0,64.9,29.68,South,176,0.0,0.0,84,0.00,,,0.00,Wunderground v.1.15,2013-06-30 10:07:00,
2013-06-30 03:12:00,69.9,64.8,29.68,South,176,0.0,0.0,84,0.00,,,0.00,Wunderground v.1.15,2013-06-30 10:12:00,
2013-06-30 03:22:00,69.9,64.8,29.68,South,176,0.0,0.0,84,0.00,,,0.00,Wunderground v.1.15,2013-06-30 10:22:00,
2013-06-30 03:27:00,69.9,64.8,29.68,South,176,0.0,0.0,84,0.00,,,0.00,Wunderground v.1.15,2013-06-30 10:27:00,
2013-06-30 03:32:00,69.8,65.1,29.68,South,176,0.0,0.0,85,0.00,,,0.00,Wunderground v.1.15,2013-06-30 10:32:00,
2013-06-30 03:42:00,69.8,65.1,29.68,South,176,0.0,0.0,85,0.00,,,0.00,Wunderground v.1.15,2013-06-30 10:42:00,
2013-06-30 03:52:00,69.7,65.0,29.68,South,176,0.0,0.0,85,0.00,,,0.00,Wunderground v.1.15,2013-06-30 10:52:00,
2013-06-30 04:02:00,69.6,64.9,29.68,South,176,0.0,0.0,85,0.00,,,0.00,Wunderground v.1.15,2013-06-30 11:02:00,
2013-06-30 04:07:00,69.5,65.1,29.68,South,176,0.0,0.0,86,0.00,,,0.00,Wunderground v.1.15,2013-06-30 11:07:00,
2013-06-30 04:17:00,69.4,65.0,29.68,South,176,0.0,0.0,86,0.00,,,0.00,Wunderground v.1.15,2013-06-30 11:17:00,
2013-06-30 04:22:00,69.4,65.0,29.68,South,176,0.0,0.0,86,0.00,,,0.00,Wunderground v.1.15,2013-06-30 11:22:00,
2013-06-30 04:32:00,69.3,64.9,29.68,South,176,0.0,0.0,86,0.00,,,0.00,Wunderground v.1.15,2013-06-30 11:32:00,
2013-06-30 04:37:00,69.3,64.9,29.68,South,176,0.0,0.0,86,0.00,,,0.00,Wunderground v.1.15,2013-06-30 11:37:00,
2013-06-30 04:47:00,69.2,64.8,29.68,South,176,0.0,0.0,86,0.00,,,0.00,Wunderground v.1.15,2013-06-30 11:47:00,
2013-06-30 04:52:00,69.2,64.8,29.68,South,176,0.0,0.0,86,0.00,,,0.00,Wunderground v.1.15,2013-06-30 11:52:00,
2013-06-30 04:57:00,69.1,64.7,29.68,South,176,0.0,0.0,86,0.00,,,0.00,Wunderground v.1.15,2013-06-30 11:57:00,
2013-06-30 05:02:00,69.1,64.7,29.68,South,176,0.0,0.0,86,0.00,,,0.00,Wunderground v.1.15,2013-06-30 12:02:00,
2013-06-30 05:07:00,69.0,65.0,29.68,South,176,0.0,0.0,87,0.00,,,0.00,Wunderground v.1.15,2013-06-30 12:07:00,
2013-06-30 05:12:00,69.0,65.0,29.68,South,176,0.0,0.0,87,0.00,,,0.00,Wunderground v.1.15,2013-06-30 12:12:00,
2013-06-30 05:22:00,68.9,64.9,29.69,South,176,0.0,0.0,87,0.00,,,0.00,Wunderground v.1.15,2013-06-30 12:22:00,
2013-06-30 05:27:00,68.8,64.8,29.68,South,176,0.0,0.0,87,0.00,,,0.00,Wunderground v.1.15,2013-06-30 12:27:00,
2013-06-30 05:32:00,68.7,64.7,29.69,South,176,0.0,0.0,87,0.00,,,0.00,Wunderground v.1.15,2013-06-30 12:32:00,
2013-06-30 05:37:00,68.6,64.6,29.69,South,176,0.0,0.0,87,0.00,,,0.00,Wunderground v.1.15,2013-06-30 12:37:00,
2013-06-30 05:47:00,68.6,64.9,29.69,South,176,0.0,0.0,88,0.00,,,0.00,Wunderground v.1.15,2013-06-30 12:47:00,
2013-06-30 05:52:00,68.6,64.9,29.69,South,176,0.0,0.0,88,0.00,,,0.00,Wunderground v.1.15,2013-06-30 12:52:00,
2013-06-30 05:57:00,68.5,64.8,29.69,South,176,0.0,0.0,88,0.00,,,0.00,Wunderground v.1.15,2013-06-30 12:57:00,
2013-06-30 06:07:00,68.4,64.7,29.69,South,176,0.0,0.0,88,0.00,,,0.00,Wunderground v.1.15,2013-06-30 13:07:00,
2013-06-30 06:12:00,68.3,64.9,29.69,South,176,0.0,0.0,89,0.00,,,0.00,Wunderground v.1.15,2013-06-30 13:12:00,
2013-06-30 06:22:00,68.4,65.0,29.70,South,176,0.0,0.0,89,0.00,,,0.00,Wunderground v.1.15,2013-06-30 13:22:00,
2013-06-30 06:27:00,68.6,65.2,29.69,South,176,0.0,0.0,89,0.00,,,0.00,Wunderground v.1.15,2013-06-30 13:27:00,
2013-06-30 06:37:00,69.1,65.7,29.69,South,176,0.0,0.0,89,0.00,,,0.00,Wunderground v.1.15,2013-06-30 13:37:00,
2013-06-30 06:42:00,69.5,65.8,29.69,South,176,0.0,0.0,88,0.00,,,0.00,Wunderground v.1.15,2013-06-30 13:42:00,
2013-06-30 06:47:00,69.7,65.7,29.70,South,176,0.0,0.0,87,0.00,,,0.00,Wunderground v.1.15,2013-06-30 13:47:00,
2013-06-30 06:57:00,70.3,65.9,29.70,South,176,0.0,1.0,86,0.00,,,0.00,Wunderground v.1.15,2013-06-30 13:57:00,
2013-06-30 07:02:00,70.5,66.1,29.70,South,176,0.0,0.0,86,0.00,,,0.00,Wunderground v.1.15,2013-06-30 14:02:00,
2013-06-30 07:12:00,71.1,66.0,29.71,South,176,0.0,1.0,84,0.00,,,0.00,Wunderground v.1.15,2013-06-30 14:12:00,
2013-06-30 07:22:00,71.7,66.3,29.71,South,176,0.0,0.0,83,0.00,,,0.00,Wunderground v.1.15,2013-06-30 14:22:00,
2013-06-30 07:27:00,72.2,66.4,29.71,South,176,0.0,0.0,82,0.00,,,0.00,Wunderground v.1.15,2013-06-30 14:27:00,
2013-06-30 07:37:00,72.6,66.4,29.71,South,176,0.0,0.0,81,0.00,,,0.00,Wunderground v.1.15,2013-06-30 14:37:00,
2013-06-30 07:42:00,72.8,66.6,29.71,South,176,0.0,0.0,81,0.00,,,0.00,Wunderground v.1.15,2013-06-30 14:42:00,
2013-06-30 07:52:00,73.3,66.8,29.71,South,176,0.0,0.0,80,0.00,,,0.00,Wunderground v.1.15,2013-06-30 14:52:00,
2013-06-30 07:57:00,73.7,66.8,29.71,South,176,0.0,0.0,79,0.00,,,0.00,Wunderground v.1.15,2013-06-30 14:57:00,
2013-06-30 08:07:00,74.2,66.9,29.71,South,176,0.0,0.0,78,0.00,,,0.00,Wunderground v.1.15,2013-06-30 15:07:00,
2013-06-30 08:12:00,74.8,67.1,29.71,South,176,0.0,1.0,77,0.00,,,0.00,Wunderground v.1.15,2013-06-30 15:12:00,
2013-06-30 08:17:00,75.0,66.9,29.71,South,176,1.0,1.0,76,0.00,,,0.00,Wunderground v.1.15,2013-06-30 15:17:00,
2013-06-30 08:27:00,75.7,67.2,29.72,South,176,1.0,1.0,75,0.00,,,0.00,Wunderground v.1.15,2013-06-30 15:27:00,
2013-06-30 08:37:00,76.4,67.9,29.72,South,176,0.0,1.0,75,0.00,,,0.00,Wunderground v.1.15,2013-06-30 15:37:00,
2013-06-30 08:42:00,76.9,67.6,29.71,South,176,1.0,2.0,73,0.00,,,0.00,Wunderground v.1.15,2013-06-30 15:42:00,
2013-06-30 08:52:00,77.6,67.9,29.71,South,176,1.0,1.0,72,0.00,,,0.00,Wunderground v.1.15,2013-06-30 15:52:00,
2013-06-30 09:02:00,79.0,68.0,29.72,South,176,1.0,1.0,69,0.00,,,0.00,Wunderground v.1.15,2013-06-30 16:02:00,
2013-06-30 09:07:00,79.6,68.1,29.72,South,176,1.0,1.0,68,0.00,,,0.00,Wunderground v.1.15,2013-06-30 16:07:00,
2013-06-30 09:12:00,80.2,68.2,29.72,South,175,1.0,1.0,67,0.00,,,0.00,Wunderground v.1.15,2013-06-30 16:12:00,
2013-06-30 09:22:00,81.0,68.1,29.72,South,171,1.0,3.0,65,0.00,,,0.00,Wunderground v.1.15,2013-06-30 16:22:00,
2013-06-30 09:27:00,80.9,68.0,29.72,SW,214,2.0,3.0,65,0.00,,,0.00,Wunderground v.1.15,2013-06-30 16:27:00,
2013-06-30 09:37:00,81.9,68.5,29.71,SSW,213,1.0,3.0,64,0.00,,,0.00,Wunderground v.1.15,2013-06-30 16:37:00,
2013-06-30 09:47:00,82.0,67.7,29.71,SSW,213,2.0,2.0,62,0.00,,,0.00,Wunderground v.1.15,2013-06-30 16:47:00,
2013-06-30 09:52:00,82.7,68.4,29.71,SSW,213,1.0,2.0,62,0.00,,,0.00,Wunderground v.1.15,2013-06-30 16:52:00,
2013-06-30 09:57:00,83.3,68.0,29.71,SSW,213,1.0,3.0,60,0.00,,,0.00,Wunderground v.1.15,2013-06-30 16:57:00,
2013-06-30 10:07:00,85.0,68.1,29.71,South,173,1.0,2.0,57,0.00,,,0.00,Wunderground v.1.15,2013-06-30 17:07:00,
2013-06-30 10:17:00,86.4,67.8,29.71,South,183,2.0,4.0,54,0.00,,,0.00,Wunderground v.1.15,2013-06-30 17:17:00,
2013-06-30 10:27:00,85.8,68.3,29.71,SSE,165,3.0,4.0,56,0.00,,,0.00,Wunderground v.1.15,2013-06-30 17:27:00,
2013-06-30 10:32:00,86.2,68.1,29.71,SSE,153,3.0,3.0,55,0.00,,,0.00,Wunderground v.1.15,2013-06-30 17:32:00,
2013-06-30 10:42:00,87.3,68.1,29.71,SSW,203,2.0,5.0,53,0.00,,,0.00,Wunderground v.1.15,2013-06-30 17:42:00,
2013-06-30 10:47:00,87.7,67.9,29.72,SSE,157,2.0,5.0,52,0.00,,,0.00,Wunderground v.1.15,2013-06-30 17:47:00,
2013-06-30 10:52:00,88.1,68.3,29.71,SW,215,3.0,3.0,52,0.00,,,0.00,Wunderground v.1.15,2013-06-30 17:52:00,
2013-06-30 11:02:00,89.0,68.5,29.72,SSE,158,3.0,3.0,51,0.00,,,0.00,Wunderground v.1.15,2013-06-30 18:02:00,
2013-06-30 11:07:00,88.9,68.4,29.72,SSE,147,4.0,4.0,51,0.00,,,0.00,Wunderground v.1.15,2013-06-30 18:07:00,
2013-06-30 11:12:00,89.0,67.9,29.73,South,174,4.0,5.0,50,0.00,,,0.00,Wunderground v.1.15,2013-06-30 18:12:00,
2013-06-30 11:22:00,89.5,67.8,29.73,SSW,197,3.0,3.0,49,0.00,,,0.00,Wunderground v.1.15,2013-06-30 18:22:00,
2013-06-30 11:27:00,89.1,66.9,29.73,South,184,4.0,6.0,48,0.00,,,0.00,Wunderground v.1.15,2013-06-30 18:27:00,
2013-06-30 11:37:00,89.6,68.5,29.73,SSE,166,4.0,4.0,50,0.00,,,0.00,Wunderground v.1.15,2013-06-30 18:37:00,
2013-06-30 11:42:00,89.2,68.7,29.73,SSE,148,5.0,5.0,51,0.00,,,0.00,Wunderground v.1.15,2013-06-30 18:42:00,
2013-06-30 11:47:00,89.0,67.9,29.73,South,172,5.0,5.0,50,0.00,,,0.00,Wunderground v.1.15,2013-06-30 18:47:00,
2013-06-30 11:52:00,88.9,67.3,29.73,SSW,192,5.0,5.0,49,0.00,,,0.00,Wunderground v.1.15,2013-06-30 18:52:00,
2013-06-30 11:57:00,88.3,66.7,29.73,SE,132,5.0,5.0,49,0.00,,,0.00,Wunderground v.1.15,2013-06-30 18:57:00,
2013-06-30 12:07:00,87.7,65.6,29.73,South,179,5.0,6.0,48,0.00,,,0.00,Wunderground v.1.15,2013-06-30 19:07:00,
2013-06-30 12:12:00,87.1,65.6,29.73,SSW,210,5.0,5.0,49,0.00,,,0.00,Wunderground v.1.15,2013-06-30 19:12:00,
2013-06-30 12:17:00,87.0,65.5,29.74,SSE,167,6.0,9.0,49,0.00,,,0.00,Wunderground v.1.15,2013-06-30 19:17:00,
2013-06-30 12:27:00,86.6,66.9,29.74,SSW,196,6.0,9.0,52,0.00,,,0.00,Wunderground v.1.15,2013-06-30 19:27:00,
2013-06-30 12:37:00,84.5,67.1,29.75,SSW,196,7.0,8.0,56,0.00,,,0.00,Wunderground v.1.15,2013-06-30 19:37:00,
2013-06-30 12:42:00,84.1,67.2,29.75,South,183,7.0,9.0,57,0.00,,,0.00,Wunderground v.1.15,2013-06-30 19:42:00,
2013-06-30 12:47:00,83.0,67.2,29.75,South,176,7.0,9.0,59,0.00,,,0.00,Wunderground v.1.15,2013-06-30 19:47:00,
2013-06-30 12:57:00,82.6,67.8,29.75,SSE,166,6.0,7.0,61,0.00,,,0.00,Wunderground v.1.15,2013-06-30 19:57:00,
2013-06-30 13:02:00,82.2,67.4,29.76,South,182,6.0,9.0,61,0.00,,,0.00,Wunderground v.1.15,2013-06-30 20:02:00,
2013-06-30 13:07:00,81.8,67.0,29.76,South,180,7.0,10.0,61,0.00,,,0.00,Wunderground v.1.15,2013-06-30 20:07:00,
2013-06-30 13:12:00,81.3,66.6,29.76,South,184,7.0,7.0,61,0.00,,,0.00,Wunderground v.1.15,2013-06-30 20:12:00,
2013-06-30 13:17:00,80.7,66.5,29.76,SE,144,7.0,7.0,62,0.00,,,0.00,Wunderground v.1.15,2013-06-30 20:17:00,
2013-06-30 13:27:00,80.3,66.6,29.76,SSW,200,6.0,6.0,63,0.00,,,0.00,Wunderground v.1.15,2013-06-30 20:27:00,
2013-06-30 13:37:00,79.6,67.2,29.76,SSW,194,6.0,6.0,66,0.00,,,0.00,Wunderground v.1.15,2013-06-30 20:37:00,
2013-06-30 13:47:00,79.1,67.6,29.76,South,178,5.0,5.0,68,0.00,,,0.00,Wunderground v.1.15,2013-06-30 20:47:00,
2013-06-30 13:52:00,79.2,67.7,29.76,SSW,209,5.0,5.0,68,0.00,,,0.00,Wunderground v.1.15,2013-06-30 20:52:00,
2013-06-30 14:02:00,79.4,67.9,29.75,South,178,4.0,4.0,68,0.00,,,0.00,Wunderground v.1.15,2013-06-30 21:02:00,
2013-06-30 14:12:00,79.1,68.1,29.75,South,180,5.0,5.0,69,0.00,,,0.00,Wunderground v.1.15,2013-06-30 21:12:00,
2013-06-30 14:17:00,78.9,67.9,29.76,SSE,159,5.0,6.0,69,0.00,,,0.00,Wunderground v.1.15,2013-06-30 21:17:00,
2013-06-30 14:22:00,78.4,67.0,29.76,SSW,195,5.0,5.0,68,0.00,,,0.00,Wunderground v.1.15,2013-06-30 21:22:00,
2013-06-30 14:27:00,78.1,67.1,29.76,SW,217,6.0,6.0,69,0.00,,,0.00,Wunderground v.1.15,2013-06-30 21:27:00,
2013-06-30 14:32:00,77.8,66.8,29.76,SSW,203,5.0,7.0,69,0.00,,,0.00,Wunderground v.1.15,2013-06-30 21:32:00,
2013-06-30 14:42:00,76.4,66.7,29.76,South,185,7.0,8.0,72,0.00,,,0.00,Wunderground v.1.15,2013-06-30 21:42:00,
2013-06-30 14:52:00,75.8,67.3,29.76,SSE,161,7.0,7.0,75,0.00,,,0.00,Wunderground v.1.15,2013-06-30 21:52:00,
2013-06-30 14:57:00,76.2,67.3,29.75,SSW,207,6.0,7.0,74,0.00,,,0.00,Wunderground v.1.15,2013-06-30 21:57:00,
2013-06-30 15:02:00,76.1,67.6,29.75,SSW,205,5.0,5.0,75,0.00,,,0.00,Wunderground v.1.15,2013-06-30 22:02:00,
2013-06-30 15:07:00,76.4,67.5,29.75,South,169,5.0,5.0,74,0.00,,,0.00,Wunderground v.1.15,2013-06-30 22:07:00,
2013-06-30 15:12:00,76.6,67.7,29.76,SSW,196,5.0,8.0,74,0.00,,,0.00,Wunderground v.1.15,2013-06-30 22:12:00,
2013-06-30 15:17:00,76.4,67.5,29.75,South,181,5.0,8.0,74,0.00,,,0.00,Wunderground v.1.15,2013-06-30 22:17:00,
2013-06-30 15:27:00,77.0,67.3,29.75,WSW,247,4.0,7.0,72,0.00,,,0.00,Wunderground v.1.15,2013-06-30 22:27:00,
2013-06-30 15:32:00,77.4,67.3,29.75,SSW,192,5.0,7.0,71,0.00,,,0.00,Wunderground v.1.15,2013-06-30 22:32:00,
2013-06-30 15:42:00,78.3,66.9,29.75,South,169,4.0,5.0,68,0.00,,,0.00,Wunderground v.1.15,2013-06-30 22:42:00,
2013-06-30 15:52:00,77.8,66.4,29.75,South,190,5.0,5.0,68,0.00,,,0.00,Wunderground v.1.15,2013-06-30 22:52:00,
2013-06-30 15:57:00,77.2,66.2,29.74,SSE,163,6.0,6.0,69,0.00,,,0.00,Wunderground v.1.15,2013-06-30 22:57:00,
2013-06-30 16:02:00,77.2,66.2,29.74,SSW,210,4.0,4.0,69,0.00,,,0.00,Wunderground v.1.15,2013-06-30 23:02:00,
2013-06-30 16:07:00,77.3,65.9,29.74,SSW,211,4.0,4.0,68,0.00,,,0.00,Wunderground v.1.15,2013-06-30 23:07:00,
2013-06-30 16:17:00,78.3,66.0,29.73,SSW,202,4.0,5.0,66,0.00,,,0.00,Wunderground v.1.15,2013-06-30 23:17:00,
2013-06-30 16:27:00,79.0,65.8,29.73,WSW,237,5.0,6.0,64,0.00,,,0.00,Wunderground v.1.15,2013-06-30 23:27:00,
2013-06-30 16:37:00,79.5,65.8,29.72,SW,214,4.0,5.0,63,0.00,,,0.00,Wunderground v.1.15,2013-06-30 23:37:00,
2013-06-30 16:47:00,80.9,66.2,29.73,SSW,197,3.0,4.0,61,0.00,,,0.00,Wunderground v.1.15,2013-06-30 23:47:00,
2013-06-30 16:52:00,80.9,65.7,29.72,SW,217,3.0,3.0,60,0.00,,,0.00,Wunderground v.1.15,2013-06-30 23:52:00,
2013-06-30 17:02:00,81.2,65.5,29.72,SW,224,4.0,4.0,59,0.00,,,0.00,Wunderground v.1.15,2013-07-01 00:02:00,
2013-06-30 17:07:00,81.3,65.1,29.72,South,186,4.0,4.0,58,0.00,,,0.00,Wunderground v.1.15,2013-07-01 00:07:00,
2013-06-30 17:17:00,81.7,65.5,29.72,SE,126,3.0,4.0,58,0.00,,,0.00,Wunderground v.1.15,2013-07-01 00:17:00,
2013-06-30 17:22:00,81.5,65.3,29.72,WSW,237,3.0,3.0,58,0.00,,,0.00,Wunderground v.1.15,2013-07-01 00:22:00,
2013-06-30 17:27:00,81.7,65.5,29.72,West,269,2.0,3.0,58,0.00,,,0.00,Wunderground v.1.15,2013-07-01 00:27:00,
2013-06-30 17:32:00,82.3,65.5,29.72,SSE,164,2.0,2.0,57,0.00,,,0.00,Wunderground v.1.15,2013-07-01 00:32:00,
2013-06-30 17:42:00,82.4,66.1,29.71,WSW,244,2.0,2.0,58,0.00,,,0.00,Wunderground v.1.15,2013-07-01 00:42:00,
2013-06-30 17:47:00,82.5,66.2,29.71,SSW,211,2.0,3.0,58,0.00,,,0.00,Wunderground v.1.15,2013-07-01 00:47:00,
2013-06-30 17:52:00,82.7,65.9,29.71,SSE,163,2.0,4.0,57,0.00,,,0.00,Wunderground v.1.15,2013-07-01 00:52:00,
2013-06-30 17:57:00,82.8,66.0,29.71,SW,229,3.0,4.0,57,0.00,,,0.00,Wunderground v.1.15,2013-07-01 00:57:00,
2013-06-30 18:07:00,83.0,66.2,29.71,SE,126,2.0,3.0,57,0.00,,,0.00,Wunderground v.1.15,2013-07-01 01:07:00,
2013-06-30 18:12:00,82.6,65.3,29.71,SSW,201,3.0,3.0,56,0.00,,,0.00,Wunderground v.1.15,2013-07-01 01:12:00,
2013-06-30 18:17:00,82.2,65.4,29.71,SSW,207,4.0,4.0,57,0.00,,,0.00,Wunderground v.1.15,2013-07-01 01:17:00,
2013-06-30 18:22:00,82.1,65.4,29.71,SSE,155,3.0,4.0,57,0.00,,,0.00,Wunderground v.1.15,2013-07-01 01:22:00,
2013-06-30 18:27:00,82.1,65.4,29.71,South,180,3.0,4.0,57,0.00,,,0.00,Wunderground v.1.15,2013-07-01 01:27:00,
2013-06-30 18:37:00,81.8,64.6,29.71,South,188,3.0,4.0,56,0.00,,,0.00,Wunderground v.1.15,2013-07-01 01:37:00,
2013-06-30 18:42:00,81.6,64.9,29.72,SSW,199,3.0,3.0,57,0.00,,,0.00,Wunderground v.1.15,2013-07-01 01:42:00,
2013-06-30 18:47:00,81.5,65.3,29.72,South,172,2.0,4.0,58,0.00,,,0.00,Wunderground v.1.15,2013-07-01 01:47:00,
2013-06-30 18:52:00,81.0,65.3,29.72,SSE,150,3.0,4.0,59,0.00,,,0.00,Wunderground v.1.15,2013-07-01 01:52:00,
2013-06-30 19:02:00,80.1,64.5,29.72,South,185,4.0,4.0,59,0.00,,,0.00,Wunderground v.1.15,2013-07-01 02:02:00,
2013-06-30 19:07:00,80.0,64.9,29.72,SSW,212,3.0,5.0,60,0.00,,,0.00,Wunderground v.1.15,2013-07-01 02:07:00,
2013-06-30 19:12:00,79.6,65.0,29.72,South,180,4.0,4.0,61,0.00,,,0.00,Wunderground v.1.15,2013-07-01 02:12:00,
2013-06-30 19:17:00,79.3,64.7,29.72,South,190,4.0,4.0,61,0.00,,,0.00,Wunderground v.1.15,2013-07-01 02:17:00,
2013-06-30 19:27:00,78.6,64.9,29.72,South,191,4.0,5.0,63,0.00,,,0.00,Wunderground v.1.15,2013-07-01 02:27:00,
2013-06-30 19:32:00,78.3,64.7,29.73,SSE,156,4.0,5.0,63,0.00,,,0.00,Wunderground v.1.15,2013-07-01 02:32:00,
2013-06-30 19:42:00,77.2,65.0,29.72,South,177,4.0,4.0,66,0.00,,,0.00,Wunderground v.1.15,2013-07-01 02:42:00,
2013-06-30 19:52:00,76.2,64.9,29.73,SSE,161,3.0,3.0,68,0.00,,,0.00,Wunderground v.1.15,2013-07-01 02:52:00,
2013-06-30 20:02:00,75.6,64.3,29.73,SSE,161,2.0,2.0,68,0.00,,,0.00,Wunderground v.1.15,2013-07-01 03:02:00,
2013-06-30 20:12:00,75.0,65.0,29.74,SSW,196,2.0,2.0,71,0.00,,,0.00,Wunderground v.1.15,2013-07-01 03:12:00,
2013-06-30 20:17:00,74.7,65.1,29.74,SSW,196,2.0,2.0,72,0.00,,,0.00,Wunderground v.1.15,2013-07-01 03:17:00,
2013-06-30 20:22:00,74.5,65.3,29.74,SE,132,2.0,2.0,73,0.00,,,0.00,Wunderground v.1.15,2013-07-01 03:22:00,
2013-06-30 20:27:00,74.2,65.4,29.74,South,189,2.0,3.0,74,0.00,,,0.00,Wunderground v.1.15,2013-07-01 03:27:00,
2013-06-30 20:37:00,73.7,65.7,29.74,South,187,2.0,3.0,76,0.00,,,0.00,Wunderground v.1.15,2013-07-01 03:37:00,
2013-06-30 20:47:00,73.1,65.8,29.75,South,187,2.0,3.0,78,0.00,,,0.00,Wunderground v.1.15,2013-07-01 03:47:00,
2013-06-30 20:52:00,72.9,66.0,29.75,South,186,2.0,3.0,79,0.00,,,0.00,Wunderground v.1.15,2013-07-01 03:52:00,
2013-06-30 20:57:00,72.6,66.1,29.75,South,174,3.0,3.0,80,0.00,,,0.00,Wunderground v.1.15,2013-07-01 03:57:00,
2013-06-30 21:02:00,72.4,65.9,29.75,South,182,3.0,3.0,80,0.00,,,0.00,Wunderground v.1.15,2013-07-01 04:02:00,
2013-06-30 21:12:00,71.7,65.9,29.75,SSW,210,3.0,3.0,82,0.00,,,0.00,Wunderground v.1.15,2013-07-01 04:12:00,
2013-06-30 21:17:00,71.4,65.6,29.75,South,177,4.0,4.0,82,0.00,,,0.00,Wunderground v.1.15,2013-07-01 04:17:00,
2013-06-30 21:22:00,71.1,65.7,29.75,SSW,211,3.0,3.0,83,0.00,,,0.00,Wunderground v.1.15,2013-07-01 04:22:00,
2013-06-30 21:32:00,70.5,65.4,29.76,South,170,3.0,3.0,84,0.00,,,0.00,Wunderground v.1.15,2013-07-01 04:32:00,
2013-06-30 21:37:00,70.2,65.1,29.76,South,173,3.0,3.0,84,0.00,,,0.00,Wunderground v.1.15,2013-07-01 04:37:00,
2013-06-30 21:42:00,70.0,65.3,29.77,South,186,3.0,3.0,85,0.00,,,0.00,Wunderground v.1.15,2013-07-01 04:42:00,
2013-06-30 21:47:00,69.9,65.2,29.77,SSW,195,2.0,3.0,85,0.00,,,0.00,Wunderground v.1.15,2013-07-01 04:47:00,
2013-06-30 21:52:00,69.8,65.1,29.77,South,175,2.0,4.0,85,0.00,,,0.00,Wunderground v.1.15,2013-07-01 04:52:00,
2013-06-30 21:57:00,69.6,64.9,29.78,SSE,168,2.0,4.0,85,0.00,,,0.00,Wunderground v.1.15,2013-07-01 04:57:00,
2013-06-30 22:02:00,69.5,65.1,29.78,South,169,3.0,3.0,86,0.00,,,0.00,Wunderground v.1.15,2013-07-01 05:02:00,
2013-06-30 22:12:00,69.3,64.9,29.78,South,169,1.0,2.0,86,0.00,,,0.00,Wunderground v.1.15,2013-07-01 05:12:00,
2013-06-30 22:17:00,69.2,64.8,29.78,South,169,1.0,2.0,86,0.00,,,0.00,Wunderground v.1.15,2013-07-01 05:17:00,
2013-06-30 22:22:00,69.1,65.1,29.79,South,169,2.0,2.0,87,0.00,,,0.00,Wunderground v.1.15,2013-07-01 05:22:00,
2013-06-30 22:32:00,69.0,65.0,29.79,South,169,2.0,3.0,87,0.00,,,0.00,Wunderground v.1.15,2013-07-01 05:32:00,
2013-06-30 22:37:00,68.9,64.9,29.78,South,169,2.0,3.0,87,0.00,,,0.00,Wunderground v.1.15,2013-07-01 05:37:00,
2013-06-30 22:47:00,68.9,64.9,29.79,South,169,1.0,2.0,87,0.00,,,0.00,Wunderground v.1.15,2013-07-01 05:47:00,
2013-06-30 22:52:00,68.9,65.2,29.79,South,169,1.0,1.0,88,0.00,,,0.00,Wunderground v.1.15,2013-07-01 05:52:00,
2013-06-30 23:02:00,68.8,64.8,29.79,South,169,0.0,0.0,87,0.00,,,0.00,Wunderground v.1.15,2013-07-01 06:02:00,
2013-06-30 23:07:00,68.8,65.1,29.79,South,169,0.0,0.0,88,0.00,,,0.00,Wunderground v.1.15,2013-07-01 06:07:00,
2013-06-30 23:12:00,68.7,65.0,29.79,South,169,0.0,0.0,88,0.00,,,0.00,Wunderground v.1.15,2013-07-01 06:12:00,
2013-06-30 23:22:00,68.6,64.9,29.79,South,169,0.0,0.0,88,0.00,,,0.00,Wunderground v.1.15,2013-07-01 06:22:00,
2013-06-30 23:27:00,68.6,64.9,29.79,South,169,0.0,0.0,88,0.00,,,0.00,Wunderground v.1.15,2013-07-01 06:27:00,
2013-06-30 23:32:00,68.5,64.8,29.79,South,169,0.0,0.0,88,0.00,,,0.00,Wunderground v.1.15,2013-07-01 06:32:00,
2013-06-30 23:37:00,68.4,64.7,29.79,South,169,0.0,0.0,88,0.00,,,0.00,Wunderground v.1.15,2013-07-01 06:37:00,
2013-06-30 23:42:00,68.4,64.7,29.79,South,169,0.0,0.0,88,0.00,,,0.00,Wunderground v.1.15,2013-07-01 06:42:00,
2013-06-30 23:52:00,68.4,64.7,29.79,South,169,0.0,0.0,88,0.00,,,0.00,Wunderground v.1.15,2013-07-01 06:52:00,
2013-06-30 23:57:00,68.4,64.7,29.78,South,169,0.0,0.0,88,0.00,,,0.00,Wunderground v.1.15,2013-07-01 06:57:00,